| time (UTC) | temp F | wind direction | speed MPH | gust MPH | rain 1hr in | rain 24hr in | rain mn in | humidity % | barometer mb |
| 20260505124514 | 50 | 11 | 16.0 | 23.0 | 0.00 | 0.00 | 0.00 | 58 | 1004.9 |
| 20260505123008 | 50 | 11 | 18.0 | 26.0 | 0.00 | 0.00 | 0.00 | 58 | 1004.4 |
| 20260505121506 | 50 | 11 | 15.0 | 25.0 | 0.00 | 0.00 | 0.00 | 58 | 1004.3 |
| 20260505120004 | 50 | 10 | 17.0 | 24.0 | 0.00 | 0.00 | 0.00 | 58 | 1003.8 |
| 20260505114503 | 50 | 11 | 16.0 | 23.0 | 0.00 | 0.00 | 0.00 | 58 | 1003.7 |
| 20260505113107 | 50 | 10 | 20.0 | 28.0 | 0.00 | 0.00 | 0.00 | 58 | 1003.4 |
| 20260505111558 | 50 | 11 | 20.0 | 28.0 | 0.00 | 0.00 | 0.00 | 58 | 1003.2 |
| 20260505110116 | 50 | 11 | 19.0 | 25.0 | 0.00 | 0.00 | 0.00 | 58 | 1003.4 |
| 20260505101550 | 51 | 9 | 17.0 | 27.0 | 0.00 | 0.00 | 0.00 | 60 | 1003.1 |
| 20260505100048 | 52 | 11 | 20.0 | 32.0 | 0.00 | 0.00 | 0.00 | 60 | 1002.8 |
| 20260505094543 | 52 | 11 | 18.0 | 29.0 | 0.00 | 0.00 | 0.00 | 61 | 1002.1 |
| 20260505093039 | 53 | 9 | 15.0 | 23.0 | 0.00 | 0.00 | 0.00 | 63 | 1002.0 |
| 20260505091537 | 54 | 11 | 16.0 | 27.0 | 0.00 | 0.00 | 0.00 | 64 | 1001.6 |
| 20260505090037 | 54 | 9 | 18.0 | 25.0 | 0.00 | 0.00 | 0.00 | 64 | 1000.8 |
| 20260505084529 | 55 | 10 | 16.0 | 27.0 | 0.00 | 0.00 | 0.00 | 65 | 1000.6 |
| 20260505083024 | 56 | 11 | 17.0 | 27.0 | 0.00 | 0.00 | 0.00 | 63 | 1000.4 |
| 20260505081529 | 57 | 13 | 16.0 | 22.0 | 0.00 | 0.00 | 0.00 | 59 | 999.9 |
| 20260505080019 | 59 | 11 | 16.0 | 26.0 | 0.00 | 0.00 | 0.00 | 54 | 999.9 |
| 20260505074512 | 62 | 11 | 12.0 | 23.0 | 0.00 | 0.00 | 0.00 | 40 | 999.9 |
| 20260505073010 | 63 | 26 | 15.0 | 20.0 | 0.00 | 0.00 | 0.00 | 32 | 999.5 |
| 20260505071515 | 64 | 26 | 16.0 | 22.0 | 0.00 | 0.00 | 0.00 | 28 | 999.2 |
| 20260505070005 | 64 | 26 | 14.0 | 23.0 | 0.00 | 0.00 | 0.00 | 27 | 999.1 |
| 20260505064503 | 64 | 27 | 14.0 | 25.0 | 0.00 | 0.00 | 0.00 | 27 | 998.9 |
| 20260505063100 | 65 | 27 | 12.0 | 16.0 | 0.00 | 0.00 | 0.00 | 26 | 998.6 |
| 20260505061602 | 66 | 30 | 12.0 | 16.0 | 0.00 | 0.00 | 0.00 | 25 | 998.5 |
| 20260505060058 | 67 | 29 | 12.0 | 18.0 | 0.00 | 0.00 | 0.00 | 24 | 998.4 |
| 20260505054559 | 68 | 28 | 14.0 | 21.0 | 0.00 | 0.00 | 0.00 | 22 | 998.4 |
| 20260505053103 | 68 | 28 | 15.0 | 21.0 | 0.00 | 0.00 | 0.00 | 22 | 998.5 |
| 20260505051551 | 65 | 24 | 13.0 | 17.0 | 0.00 | 0.00 | 0.00 | 25 | 998.5 |
| 20260505041549 | 65 | 26 | 10.0 | 12.0 | 0.00 | 0.00 | 0.00 | 27 | 998.4 |
| 20260505040046 | 64 | 25 | 10.0 | 13.0 | 0.00 | 0.00 | 0.00 | 27 | 998.6 |
| 20260505034545 | 67 | 23 | 12.0 | 17.0 | 0.00 | 0.00 | 0.00 | 25 | 998.5 |
| 20260505033047 | 68 | 23 | 12.0 | 17.0 | 0.00 | 0.00 | 0.00 | 23 | 998.5 |
| 20260505031544 | 65 | 19 | 8.0 | 11.0 | 0.00 | 0.00 | 0.00 | 26 | 998.3 |
| 20260505030043 | 64 | 19 | 5.0 | 8.0 | 0.00 | 0.00 | 0.00 | 29 | 998.0 |
| 20260505024544 | 65 | 19 | 7.0 | 9.0 | 0.00 | 0.00 | 0.00 | 29 | 997.8 |
| 20260505023042 | 65 | 19 | 6.0 | 9.0 | 0.00 | 0.00 | 0.00 | 30 | 997.8 |
| 20260505021540 | 67 | 360 | 5.0 | 8.0 | 0.00 | 0.00 | 0.00 | 28 | 997.7 |
| 20260505020041 | 69 | 15 | 8.0 | 10.0 | 0.00 | 0.00 | 0.00 | 27 | 997.6 |
| 20260505014540 | 71 | 14 | 6.0 | 8.0 | 0.00 | 0.00 | 0.00 | 26 | 997.6 |
| 20260505013039 | 73 | 14 | 6.0 | 8.0 | 0.00 | 0.00 | 0.00 | 23 | 997.6 |
| 20260505011549 | 76 | 14 | 8.0 | 11.0 | 0.00 | 0.00 | 0.00 | 21 | 997.7 |
| 20260505010039 | 78 | 15 | 10.0 | 14.0 | 0.00 | 0.00 | 0.00 | 19 | 997.6 |
| 20260505004536 | 80 | 18 | 12.0 | 17.0 | 0.00 | 0.00 | 0.00 | 20 | 997.7 |
| 20260505003033 | 81 | 17 | 15.0 | 20.0 | 0.00 | 0.00 | 0.00 | 20 | 997.8 |
| 20260505001532 | 81 | 17 | 16.0 | 21.0 | 0.00 | 0.00 | 0.00 | 22 | 998.0 |
| 20260505000032 | 82 | 20 | 14.0 | 23.0 | 0.00 | 0.00 | 0.00 | 22 | 998.1 |
| 20260504234528 | 82 | 224 | 15.0 | 20.0 | 0.00 | 0.00 | 0.00 | 21 | 998.3 |
| 20260504233027 | 82 | 244 | 17.0 | 23.0 | 0.00 | 0.00 | 0.00 | 21 | 998.6 |
| 20260504231526 | 83 | 245 | 13.0 | 20.0 | 0.00 | 0.00 | 0.00 | 21 | 998.6 |
| 20260504230027 | 83 | 262 | 13.0 | 17.0 | 0.00 | 0.00 | 0.00 | 21 | 998.7 |
| 20260504224522 | 83 | 267 | 14.0 | 25.0 | 0.00 | 0.00 | 0.00 | 21 | 999.0 |
| 20260504223020 | 82 | 215 | 13.0 | 24.0 | 0.00 | 0.00 | 0.00 | 21 | 998.9 |
| 20260504221522 | 82 | 202 | 10.0 | 16.0 | 0.00 | 0.00 | 0.00 | 22 | 999.1 |
| 20260504220021 | 82 | 243 | 17.0 | 25.0 | 0.00 | 0.00 | 0.00 | 21 | 999.4 |
| 20260504214517 | 83 | 267 | 15.0 | 30.0 | 0.00 | 0.00 | 0.00 | 20 | 999.6 |
| 20260504213014 | 83 | 255 | 19.0 | 28.0 | 0.00 | 0.00 | 0.00 | 19 | 999.5 |
| 20260504211512 | 83 | 246 | 14.0 | 26.0 | 0.00 | 0.00 | 0.00 | 18 | 999.8 |
| 20260504210010 | 84 | 271 | 15.0 | 28.0 | 0.00 | 0.00 | 0.00 | 19 | 1000.0 |
| 20260504204508 | 83 | 242 | 16.0 | 22.0 | 0.00 | 0.00 | 0.00 | 21 | 1000.1 |
| 20260504203010 | 82 | 267 | 17.0 | 32.0 | 0.00 | 0.00 | 0.00 | 22 | 1000.5 |
| 20260504201505 | 82 | 291 | 16.0 | 31.0 | 0.00 | 0.00 | 0.00 | 22 | 1000.8 |
| 20260504194600 | 81 | 248 | 23.0 | 29.0 | 0.00 | 0.00 | 0.00 | 22 | 1001.2 |
| 20260504193100 | 81 | 246 | 21.0 | 30.0 | 0.00 | 0.00 | 0.00 | 23 | 1001.6 |
| 20260504191600 | 81 | 229 | 20.0 | 32.0 | 0.00 | 0.00 | 0.00 | 23 | 1001.6 |
| 20260504190109 | 81 | 275 | 17.0 | 27.0 | 0.00 | 0.00 | 0.00 | 24 | 1001.6 |
| 20260504184614 | 80 | 255 | 21.0 | 30.0 | 0.00 | 0.00 | 0.00 | 24 | 1001.7 |
| 20260504183054 | 80 | 267 | 19.0 | 32.0 | 0.00 | 0.00 | 0.00 | 24 | 1001.9 |
| 20260504181552 | 80 | 279 | 18.0 | 36.0 | 0.00 | 0.00 | 0.00 | 24 | 1002.1 |
| 20260504180051 | 80 | 250 | 21.0 | 33.0 | 0.00 | 0.00 | 0.00 | 24 | 1002.5 |
| 20260504174548 | 81 | 260 | 17.0 | 29.0 | 0.00 | 0.00 | 0.00 | 24 | 1002.6 |
| 20260504173049 | 81 | 286 | 18.0 | 28.0 | 0.00 | 0.00 | 0.00 | 24 | 1002.9 |
| 20260504171544 | 80 | 263 | 21.0 | 29.0 | 0.00 | 0.00 | 0.00 | 23 | 1003.0 |